User: anonymous   Login
Location: ??
(35.5052°N, 139.7262°E)
Time: 10:32:23
(UTC+00:00)
Language:

CZ-4B R/B - Orbit

View from above orbital plane
View from above orbital plane
View from above satellite
View from above satellite

Ground track
Ground track

The orbit data is extracted from the following two-line orbital elements,

1 32959U 08026B   21260.65441130  .00000020  00000-0  20709-4 0  9993
2 32959  98.9061 225.1514 0070661  17.5364 155.1540 14.41808665700189
Epoch (UTC): 17 September 2021 15:42:21
Eccentricity: 0.0070661
inclination: 98.9061°
perigee height: 702 km
apogee height: 803 km
right ascension of ascending node: 225.1514°
argument of perigee: 17.5364°
revolutions per day: 14.41808665
mean anomaly at epoch: 155.1540°
orbit number at epoch: 70018

The dashed part of the orbit path shows where the satellite is in the earth's shadow,  

DLR